www.pogodaiklimat.ru

Погода и климат >> Архив погоды >> Греция >> Янина


ПОГОДА в Янине

  • Прогноз погоды в Янине
  • Монитор погоды в Янине

АРХИВ ПОГОДЫ в Янине

Время (UTC), дата Ветер
(напр.,м/с)
 
Видим.   Явления Облачность Т
(С)
Тd
(С)
f
(%)
Тe
(С)
Тes
(С)
Комфортность P
(гПа)
Po
(гПа)
Тmin
(С)
Tmax
(С)
R
(мм)
R24
(мм)
S
(см)
06 16.07 0 10 км 10/6 1200 м
[Sc As op]
+17.2 +15.5 90 1007.0 951.3 +16.0 260
09 16.07 0 8000 м слаб. дождь 10/6 1200 м
[Sc As op]
+18.0 +17.0 94 1007.3 951.8
12 16.07 0 10 км слаб. дождь 10/8 300 м
[Frnb As op]
+19.8 +18.2 90 1006.3 951.2 1
15 16.07 0 5000 м слаб. дождь 10/8 240 м
[Frnb As op]
+17.4 +17.4 100 1006.6 951.0
18 16.07 0 5000 м дождь 10/6 180 м
[Frnb Ac As]
+16.8 +16.5 98 1007.5 951.7 +21.4 14
06 17.07 0 10 км 8/8 750 м
[Cu Sc]
+19.6 +10.4 55 1008.2 952.9 +15.4 4 240
09 17.07 0 10 км 3/3 600 м
[Cu hum Ac cuf]
+23.8 +12.3 48 1008.0 953.5
12 17.07 0 10 км 3/3 600 м
[Cu hum Ac cuf]
+26.4 +11.9 40 1008.0 954.0
15 17.07 0 10 км 8/5 1200 м
[Sc diur, vesp Ac lent]
+26.0 +13.5 46 1008.2 954.1
18 17.07 0 10 км 3/3 1000 м
[Cu hum]
+22.8 +14.8 61 1009.3 954.5 +26.8
06 18.07 0 10 км ясно +16.6 +15.2 91 1013.3 957.2 +15.2
09 18.07 0 10 км 1/1 1000 м
[Cu hum]
+25.2 +15.0 53 1011.4 957.0
12 18.07 0 10 км 4/4 1000 м
[Cu hum]
+27.0 +10.9 37 1010.7 956.6
15 18.07 0 10 км 3/3 600 м
[Cu hum Ac cuf]
+26.6 +11.7 39 1010.6 956.5
18 18.07 0 10 км 3/3 1000 м
[Cu hum]
+23.4 +12.3 50 1011.6 956.8 +28.4
06 19.07 0 10 км 3/3 1000 м
[Cu hum]
+19.4 +16.1 81 1015.1 959.4 +15.6 250
09 19.07 0 10 км 3/3 1000 м
[Cu med, cong]
+24.0 +14.6 56 1014.5 959.7
12 19.07 0 10 км 6/6 600 м
[Cu Sc]
+27.4 +14.1 44 1012.9 958.8
15 19.07 0 10 км {дождь} 9/6 1050 м
[Cu Sc Ac As]
+20.2 +16.6 80 1016.3 960.7
18 19.07 0 10 км {дождь} 6/3 1200 м
[Sc diur, vesp Ac lent Cs]
+19.6 +16.6 83 1016.2 960.5 +27.4 0.1
21 19.07 0 10 км 3/1 1000 м
[Cu hum Ci fib]
+14.8 +14.8 100 1018.5 961.8
06 20.07 0 10 км 3/3 50 м
[St]
+16.4 +15.4 94 1018.9 962.4 +13.4 250
09 20.07 0 10 км 1/1 1000 м
[Cu hum]
+24.6 +13.4 50 1017.3 962.4
12 20.07 0 10 км 4/4 1000 м
[Cu hum]
+29.8 +13.1 36 1015.6 961.7
15 20.07 0 10 км 5/5 900 м
[Cu Sc]
+28.2 +14.8 44 1015.4 961.3
18 20.07 0 10 км 3/3 600 м
[Cu hum Ac cuf]
+24.6 +16.2 60 1017.0 962.2 +31.2
06 21.07 0 10 км ясно +20.2 +16.9 81 1019.8 964.0 +15.2 250
09 21.07 0 10 км 1/1 600 м
[Cu hum]
+26.0 +14.4 49 1017.5 962.9
12 21.07 0 10 км 3/3 600 м
[Cu hum Ac cuf]
+31.0 +11.1 29 1015.5 961.9
15 21.07 0 10 км 4/4 1000 м
[Cu med, cong]
+32.0 +14.1 34 1014.9 961.5
18 21.07 0 10 км 3/3 1000 м
[Sc diur, vesp]
+26.6 +15.9 52 1016.3 961.8 +32.6
06 22.07 0 10 км ясно +19.4 +18.1 92 1019.3 963.4 +15.4
09 22.07 0 10 км 1/1 1000 м
[Cu hum]
+28.6 +16.5 48 1016.9 962.8
12 22.07 0 10 км 4/4 1000 м
[Cu hum]
+32.0 +16.6 40 1014.9 961.5
15 22.07 0 10 км 4/4 1000 м
[Cu hum]
+34.8 +14.2 29 1012.9 960.0
18 22.07 0 10 км 3/3 1000 м
[Cu hum]
+27.4 +16.1 50 1014.3 960.1 +34.8

 

Местоположение метеостанции Янина (Греция): широта 39.70 долгота 20.82 высота над уровнем моря 483 м.

В архиве по умолчанию представлена погода в Янине за последнюю неделю. Архивные данные за месяц целиком и за предыдущие месяцы, начиная с января 2011 года, Вы можете получить, выбрав интересующий диапазон дат из раскрывающегося списка и нажав кнопку "Ввод!".


*Определитесь, кто Вы:
робот инопланетянин человек

Внимание! Время в таблицах - всемирное. Для получения местного времени необходимо прибавить поправку, которая равна 2 ч.

Смотрите также архив погоды в соседних городах и на ближайших метеорологических станциях:

Погода в Конице (Греция) (40 км)
Погода в Гирокастре (Албания) (71 км)
Погода в Саранде (Албания) (73 км)
Погода в Керкире (Греция) (78 км)
Погода в Кастории (Греция) (92 км)
Погода в Корке (Албания) (100 км)
Погода в Козани (Греция) (106 км)
Погода в Актионе (Греция) (120 км)
Погода в Преторе (Македония) (130 км)
Погода во Флорине (Греция) (130 км)

Пояснения к столбцам:

Ветер - указаны скорость ветра в м/с - средняя за 10 мин, порывы в срок и между сроками (в фигурных скобках) и направление, откуда дует ветер: С - северный, СВ - северо-восточный, В - восточный, ЮВ - юго-восточный, Ю - южный, ЮЗ - юго-западный, З - западный, СЗ - северо-западный.
Видимость - горизонтальная дальность видимости в метрах или километрах. При видимости от 1 до 10 км при отсутствии осадков обычно наблюдается дымка, при ухудшении видимости до 1 км и менее - туман. В сухую погоду видимость может ухудшаться дымом, пылью или мглою.
Явления - указаны атмосферные явления, наблюдавшиеся в срок или в последний час перед сроком; фигурными скобками обозначены явления, наблюдавшиеся между сроками (за 1-3 часа до срока); квадратными скобками обозначены град или гололедные отложения с указанием их диаметра в мм.
Облачность - указаны через наклонную черту общая и нижняя облачность в баллах и высота нижней границы облаков в метрах; квадратными скобками обозначены формы облаков: Ci - перистые, Cs - перисто-слоистые, Cc - перисто-кучевые, Ac - высококучевые, As - высокослоистые, Sc - слоисто-кучевые, Ns - слоисто-дождевые, Cu - кучевые, Cb - кучево-дождевые. Подробнее классификацию облаков см. в Атласе облаков (PDF).
T - Температура воздуха - температура, измеренная на высоте 2 м над землей.
Td - Температура точки росы - температура, при понижении до которой содержащийся в воздухе водяной пар достигнет насыщения.
f - Относительная влажность воздуха - влажноcть воздуха, измеренная на высоте 2 м над землей.
Te - Эффективная температура - температура, которую ощущает одетый по сезону человек в тени. Характеристика душности погоды. При расчете учитывается влияние влажности воздуха и скорости ветра на теплоощущения человека.
Tes - Эффективная температура на солнце - температура, которую ощущает человек, с поправкой на солнечный нагрев. Характеристика знойности погоды. Зависит от высоты солнца над горизонтом, облачности и скорости ветра. Ночью, в пасмурную погоду, а также при ветре 12 м/с и более поправка равна нулю.
P - Атмосферное давление - приведенное к уровню моря атмосферное давление.
Po - Атмосферное давление - измеренное на уровне метеостанции атмосферное давление.
Tmin - Минимальная температура - минимум температуры воздуха на высоте 2 м над землей.
Tmax - Максимальная температура - максимум температуры воздуха на высоте 2 м над землей.
R - Количество осадков - Количество выпавших осадков за период времени, мм. При наведении курсора мыши на число - период времени, за который выпало указанное количество осадков.
R24 - Количество осадков - Количество выпавших осадков за 24 часа, мм.
S - Снежный покров - Высота снежного покрова, см. При наведении курсора мыши на число - состояние снежного покрова и степень покрытия местности в баллах.